Greenville/Spartanburg, SC

12:58 AM EDT on July 28, 2017 (GMT -0400)
Greenville-Spartanburg International

Weather History for KGSP - October, 2013

Change the Weather History Date:

Thursday, October 24, 2013

  Actual Average Record
Temperature  
Mean Temperature 49 °F 59 °F  
Max Temperature 63 °F 71 °F 86 °F (1939)
Min Temperature 35 °F 48 °F 26 °F (1917)
Degree Days  
Heating Degree Days 16 7  
Month to date heating degree days 62 99  
Since 1 July heating degree days 63 116  
Cooling Degree Days 0 1  
Month to date cooling degree days 53 43  
Year to date cooling degree days 1526 1705  
Moisture  
Dew Point 36 °F    
Average Humidity 64    
Maximum Humidity 92    
Minimum Humidity 36    
Precipitation  
Precipitation 0.00 in 0.10 in 2.78 in (1918)
Month to date precipitation 1.87 2.71  
Year to date precipitation 58.72 38.65  
Snow  
Snow 0.00 in 0.00 in 0.00 in ()
Month to date snowfall 0.0 0.0  
Since 1 July snowfall 0.0 0.0  
Since 1 September snowfall 0.0 0.0  
Snow Depth 0.00 in    
Sea Level Pressure  
Sea Level Pressure 30.11 in    
Wind  
Wind Speed 4 mph (WSW)    
Max Wind Speed 18 mph    
Max Gust Speed 22 mph    
Visibility 10 miles    
Events      
T = Trace of Precipitation, MM = Missing Value Source: NWS Daily Summary

Daily Weather History Graph

Daily Weather History Graph

Search for Another Location

Airport or City:

Trip Planner

Search our weather history database for the weather conditions in past years. The results will help you decide how hot, cold, wet, or windy it might be!

Date:

Astronomy

Oct. 24, 2013 Rise Set
Actual Time 7:42 AM EDT 6:42 PM EDT
Civil Twilight 7:16 AM EDT 7:08 PM EDT
Nautical Twilight 6:47 AM EDT 7:38 PM EDT
Astronomical Twilight 6:17 AM EDT 8:07 PM EDT
Moon 11:10 PM EDT (10/24) 12:37 PM EDT (10/24)
Length of Visible Light 11h 51m
Length of Day
11h 00m
Waning Gibbous, 71% of the Moon is Illuminated
Oct 24
Waning Gibbous
Oct 26
Last Quarter
Nov 3
New
Nov 10
First Quarter
Nov 17
Full

Hourly Weather History & Observations

Time (EDT) Temp. Windchill Dew Point Humidity Pressure Visibility Wind Dir Wind Speed Gust Speed Precip Events Conditions
12:53 AM 41.0 °F - 30.0 °F 65% 30.06 in 10.0 mi Calm Calm - N/A   Clear
1:53 AM 41.0 °F 39.0 °F 30.9 °F 67% 30.06 in 10.0 mi North 3.5 mph - N/A   Clear
2:53 AM 37.9 °F 35.5 °F 32.0 °F 79% 30.05 in 10.0 mi NE 3.5 mph - N/A   Clear
3:53 AM 35.1 °F 32.2 °F 33.1 °F 92% 30.09 in 10.0 mi West 3.5 mph - N/A   Clear
4:53 AM 36.0 °F - 33.1 °F 89% 30.09 in 10.0 mi Calm Calm - N/A   Partly Cloudy
5:53 AM 36.0 °F - 30.9 °F 82% 30.11 in 10.0 mi Calm Calm - N/A   Clear
6:53 AM 37.0 °F - 30.9 °F 79% 30.12 in 10.0 mi Calm Calm - N/A   Clear
7:53 AM 36.0 °F - 32.0 °F 86% 30.15 in 10.0 mi Calm Calm - N/A   Clear
8:53 AM 39.9 °F - 35.1 °F 83% 30.16 in 9.0 mi Calm Calm - N/A   Overcast
9:53 AM 48.0 °F - 32.0 °F 54% 30.17 in 10.0 mi Calm Calm - N/A   Overcast
10:53 AM 51.1 °F - 35.1 °F 54% 30.17 in 10.0 mi SSW 6.9 mph - N/A   Clear
11:53 AM 53.1 °F - 34.0 °F 48% 30.16 in 10.0 mi SSW 5.8 mph - N/A   Clear
12:53 PM 55.9 °F - 36.0 °F 47% 30.14 in 10.0 mi WSW 8.1 mph - N/A   Clear
1:53 PM 57.9 °F - 35.1 °F 42% 30.10 in 10.0 mi SSW 12.7 mph - N/A   Clear
2:53 PM 60.1 °F - 36.0 °F 41% 30.08 in 10.0 mi West 9.2 mph 18.4 mph N/A   Clear
3:53 PM 62.1 °F - 36.0 °F 38% 30.06 in 10.0 mi SW 13.8 mph - N/A   Clear
4:53 PM 60.1 °F - 37.9 °F 44% 30.07 in 10.0 mi WSW 8.1 mph - N/A   Mostly Cloudy
5:53 PM 59.0 °F - 39.0 °F 48% 30.07 in 10.0 mi WSW 3.5 mph - N/A   Scattered Clouds
6:53 PM 55.0 °F - 43.0 °F 64% 30.09 in 10.0 mi NNW 3.5 mph - N/A   Overcast
7:53 PM 53.1 °F - 42.1 °F 66% 30.11 in 10.0 mi Calm Calm - N/A   Clear
8:53 PM 50.0 °F - 41.0 °F 71% 30.13 in 10.0 mi Calm Calm - N/A   Clear
9:53 PM 48.0 °F - 41.0 °F 77% 30.14 in 10.0 mi Variable 3.5 mph - N/A   Scattered Clouds
10:53 PM 48.0 °F - 39.9 °F 74% 30.15 in 10.0 mi Calm Calm - N/A   Partly Cloudy
11:53 PM 46.0 °F - 39.0 °F 76% 30.16 in 10.0 mi Calm Calm - N/A   Clear